Regional Weather Roundup
Issued by NWS

Home | Current Version | Previous Version | Graphics & Text | Print | Product List | Glossary On
Versions: 1 2 3 4 5 6 7 8 9 10 11 12 13 14 15 16 17 18 19 20 21 22 23 24 25 26 27 28 29 30 31 32 33 34 35 36 37 38 39 40 41 42 43 44 45 46 47 48 49 50
000
ASUS45 KCYS 061010
RWRWY

WYOMING REGIONAL WEATHER ROUNDUP
NATIONAL WEATHER SERVICE CHEYENNE WY
300 AM MST FRI MAR 06 2015

NOTE:  "FAIR" INDICATES FEW OR NO CLOUDS BELOW 12,000 FEET
WITH NO SIGNIFICANT WEATHER AND/OR OBSTRUCTIONS TO VISIBILITY.

WYZ001-061100-
YELLOWSTONE NATIONAL PARK

CITY           SKY/WX    TMP DP  RH WIND       PRES   REMARKS
LK YELLOWSTONE   N/A      2  -2  83 CALM      30.35S
W YELLOWSTONE  NOT AVBL

$$
WYZ002>013-054>058-071-098>099-061100-
NORTHERN WYOMING

CITY           SKY/WX    TMP DP  RH WIND       PRES   REMARKS
JACKSON        FAIR      12   9  85 NE9       30.36S WCI   0
CODY           FAIR      39  10  30 W18G26    30.17S WCI  30
GREYBULL       FAIR      22  16  78 SE5       30.23F WCI  16
WORLAND        FAIR      21  15  78 CALM      30.22F
SHERIDAN       FAIR      23  15  71 SW5       30.14F WCI  17
BUFFALO        FAIR      37  12  35 S7        30.15S WCI  32
GILLETTE       FAIR      32  17  54 SW12      30.14S WCI  23
HULETT         PTSUNNY   34  19  55 SW12      30.12F WCI  25
NEWCASTLE      FAIR      27  16  63 CALM      30.16F

$$
WYZ014>020-022>026-101>103-061100-
CENTRAL WYOMING

CITY           SKY/WX    TMP DP  RH WIND       PRES   REMARKS
BIG PINEY      FAIR      15  10  80 NE5       30.35F WCI   8
PINEDALE       FAIR       9   3  78 W8        30.35F WCI  -4
DUBOIS         FAIR      19   9  63 N16       30.28F WCI   5
LANDER         FAIR      23  11  60 VRB5      30.23F WCI  17
RIVERTON       FAIR      21  10  62 SW5       30.24F WCI  15
CASPER         CLOUDY    30  18  60 SW22      30.21F WCI  17
DOUGLAS        FAIR      19  14  81 CALM      30.21F

$$
WYZ021-027>030-104>119-061100-
SOUTHERN WYOMING

CITY           SKY/WX    TMP DP  RH WIND       PRES   REMARKS
EVANSTON       FAIR      20  12  71 SW12      30.39F WCI   8
FORT BRIDGER   FAIR      26  12  55 W10       30.40S WCI  17
ROCK SPRINGS   FAIR      25  12  58 SW14      30.34F WCI  13
DIXON          FAIR      13   9  85 CALM      30.41S
RAWLINS        FAIR      25  13  60 W23G31    30.26F WCI  10
SARATOGA       FAIR      27  14  59 SW12G18   30.33S WCI  16
LARAMIE        FAIR      23  10  57 NW5       30.24F WCI  17
CHEYENNE       CLOUDY    35  12  38 W17       30.21S WCI  25
TORRINGTON     FAIR      28  20  71 W6        30.20F WCI  22
PINE BLUFFS    FAIR      28  18  64 CALM      30.22F

$$



USA.gov is the U.S. government's official web portal to all federal, state and local government web resources and services.